Regional Weather Roundup
Issued by NWS

Home | Current Version | Previous Version | Text Only | Print | Product List | Glossary On
Versions: 1 2 3 4 5 6 7 8 9 10 11 12 13 14 15 16 17 18 19 20 21 22 23 24 25 26 27 28 29 30 31 32 33 34 35 36 37 38 39 40 41 42 43 44 45 46 47 48 49 50
000
ASUS44 KFWD 231610
RWRTX
NORTH TEXAS HOURLY WEATHER ROUNDUP
NATIONAL WEATHER SERVICE FORT WORTH TX
1100 AM CDT MON APR 23 2018

NOTE: "FAIR" INDICATES FEW OR NO CLOUDS BELOW 12,000 FEET WITH NO
SIGNIFICANT WEATHER AND/OR OBSTRUCTIONS TO VISIBILITY.

TXZ118-119-231700-
DALLAS/FORT WORTH METROPLEX

CITY           SKY/WX    TMP DP  RH WIND       PRES   REMARKS
DFW AIRPORT    FAIR      65  51  60 NW13      30.09S
DALLAS LOVE    FAIR      65  51  60 N13       30.10S
FTW MEACHAM    FAIR      67  53  61 NW12G21   30.12R
DAL-EXECUTIVE  FAIR      65  51  60 NW12      30.09S
FTW-ALLIANCE   FAIR      65  52  62 NW10      30.12R
FTW-NAS-JRB    FAIR      65  50  58 N12       30.13R
FTW-SPINKS     PTSUNNY   63  52  67 W9        30.14R
ARLINGTON      FAIR      64  52  64 NW16      30.11R
GRAND PRAIRIE  SUNNY     64  48  55 NW10      30.13R
ADDISON        SUNNY     63  52  67 N13G24    30.11R
MESQUITE       MOSUNNY   63  50  63 NW15      30.10R
LANCASTER      FAIR      64  51  62 N10G18    30.11R
$$

TXZ091>094-102>105-117-120-121-131>134-231700-
NORTH CENTRAL TEXAS

CITY           SKY/WX    TMP DP  RH WIND       PRES   REMARKS
SHRMAN/DENISON CLOUDY    59  50  73 N12       30.11S
GAINESVILLE    FAIR      60  49  67 N13G23    30.14R
BOWIE          FAIR      63  50  63 N14       30.14R
BRIDGEPORT     FAIR      62  49  63 N8        30.16R
DECATUR        FAIR      63  50  62 NW12G17   30.13R
DENTON         FAIR      65  53  65 N15       30.11R
MCKINNEY       CLOUDY    60  52  74 NW13      30.10R
BONHAM         CLOUDY    57  50  77 NW10      30.09R
GREENVILLE     CLOUDY    63  52  67 N12       30.09R
ROCKWALL       CLOUDY    60  51  73 MISG      30.10R
TERRELL        CLOUDY    62  50  64 NW12      30.10R
WAXAHACHIE     FAIR      64  53  67 NW9       30.12S
CLEBURNE       FAIR      63  52  67 NW13      30.15S
GRANBURY       FAIR      64  51  61 NW14      30.15F
$$

TXZ083>090-098>101-113>116-127>130-139>142-154-155-231700-
WESTERN NORTH TEXAS

CITY           SKY/WX    TMP DP  RH WIND       PRES   REMARKS
WICHITA FALLS  FAIR      65  48  54 N10       30.15S
WF-KICKAPOO    FAIR      62  48  59 N13G21    30.19R
VERNON         FAIR      65  48  53 N12G21    30.17S
ABILENE        FAIR      64  46  52 N8        30.19R
GRAHAM           N/A     65  49  57 NW9G16    30.15S
BRECKENRIDGE   FAIR      65  47  50 N9        30.17S
CISCO          FAIR      63  46  55 N7G13     30.17F
EASTLAND       FAIR      63  47  55 N14       30.16F
RANGER         FAIR      63  48  57 NW13      30.16S
MINERAL WELLS  FAIR      65  49  56 N14G20    30.13F
STEPHENVILLE   FAIR      64  47  52 N13G18    30.17S
COMANCHE       FAIR      66  48  51 N9G20     30.16F
COLEMAN        FAIR      67  42  39 NE12G18   30.18S
BRADY          FAIR      64  39  39 N8        30.18R
$$

TXZ143>147-156>162-174-175-231700-
CENTRAL TEXAS

CITY           SKY/WX    TMP DP  RH WIND       PRES   REMARKS
WACO           FAIR      65  50  58 NW12G21   30.13S
WACO-TSTC      SUNNY     64  50  59 N8        30.13S
WACO-MCGREGOR  FAIR      65  50  58 NW9       30.14S
HILLSBORO      FAIR      62  53  72 NW9G17    30.13S
CORSICANA      PTSUNNY   61  52  72 NW9       30.13R
MEXIA          FAIR      60  50  69 NW12      30.11S
HEARNE         FAIR      65  50  58 NW8       30.13S
CAMERON        FAIR      69  51  53 NW12      30.13S
TEMPLE         FAIR      67  50  54 NW12      30.13F
KILLEEN        SUNNY     68  43  40 NW12G20   30.14S
KILLEEN-SKYLRK FAIR      69  48  47 NW10      30.14S
GATESVILLE     FAIR      66  48  52 NW9       30.16S
HAMILTON       FAIR      66  48  51 NW12      30.16S
LAMPASAS       FAIR      68  44  42 N10G17    30.14S
$$

TXZ095>097-106>112-122>126-135>138-148>153-164>167-231700-
EAST TEXAS

CITY           SKY/WX    TMP DP  RH WIND       PRES   REMARKS
PARIS          CLOUDY    59  52  77 NW14      30.06S
SULPHUR SPRNGS HAZE      60  52  75 NW10      30.09S VSB<1/4
MOUNT PLEASANT PTSUNNY   60  53  77 W10       30.07R
GILMER         CLOUDY    58  52  78 W6        30.05S
MINEOLA        CLOUDY    59  52  77 NW9       30.08R
TYLER          CLOUDY    61  50  67 N9        30.07R
LONGVIEW       CLOUDY    62  53  72 NW9       30.04R
MARSHALL       CLOUDY    63  52  68 N9        30.05S
ATHENS         CLOUDY    59  52  77 W5        30.08F
PALESTINE      CLOUDY    58  52  79 W7        30.11S
JACKSONVILLE   CLOUDY    60  52  76 NW9       30.09S
HENDERSON      CLOUDY    62  52  70 W9        30.07S
CENTER         CLOUDY    61  51  70 NW9       30.05F
NACOGDOCHES      N/A     61  53  75 W14       30.07S
LUFKIN         FAIR      65  52  62 NW9       30.06F
$$

SUPPLEMENTAL OBSERVATIONS (NWS FORT WORTH AREA)

CITY           SKY/WX    TMP DP  RH WIND       PRES   REMARKS
CADDO GRASSLND   N/A     61  52  72 N5G15       N/A
LBJ GRASSLAND    N/A     64  50  59 NW8         N/A
POSSUM KINGDOM   N/A     64  48  55 N13         N/A
GRANBURY         N/A     64  50  59 NW15        N/A
MCGREGOR         N/A     68  48  49 N9          N/A
TEMPLE           N/A     70  50  49 NW15        N/A
PALESTINE        N/A     61  52  72 NW6         N/A
$$

SUPPLEMENTAL OBSERVATIONS (NWS NORMAN AREA)

CITY           SKY/WX    TMP DP  RH WIND       PRES   REMARKS
GOODLETT         N/A     64  45  48 NW5       30.19R
ODELL            N/A     65  49  56 N9        30.19S
CROWELL          N/A     65  46  49 NE8       30.19S
KNOX CITY        N/A     66  42  42 NE7       30.20S
SEYMOUR          N/A     65  48  52 NW5       30.18S
MILLERS CREEK    N/A     66  46  48 N7          N/A
$$

SUPPLEMENTAL OBSERVATIONS (NWS SAN ANGELO AREA)

CITY           SKY/WX    TMP DP  RH WIND       PRES   REMARKS
WEINERT          N/A     64  46  50 NE8       30.20S
HASKELL          N/A     64  43  46 N8        30.19F
THROCKMORTON     N/A     65  49  55 N7        30.19S
STAMFORD         N/A     65  46  50 N8        30.20S
CLYDE            N/A     65  44  48 NE8       30.20S
HAMBY            N/A     66  45  45 N6          N/A
IVIE RESERVOIR   N/A     70  41  35 N6          N/A
COLORADO BEND    N/A     70  43  37 N8G16       N/A
$$

SUPPLEMENTAL OBSERVATIONS (NWS SHREVEPORT AREA)

CITY           SKY/WX    TMP DP  RH WIND       PRES   REMARKS
TEXARKANA        N/A     64  54  68 NW10        N/A
LINDEN           N/A     61  54  77 W5          N/A
LUFKIN           N/A     64  52  63 MISG        N/A
N SABINE NF      N/A     63  54  72 MISG        N/A
$$

SUPPLEMENTAL OBSERVATIONS ARE A COLLECTION OF AUTOMATED INSTRUMENTS
THAT ARE MAINTAINED BY A VARIETY OF FEDERAL AND STATE AGENCIES.
CERTAIN ELEMENTS...SUCH AS HUMIDITY VALUES AND SUSTAINED WIND
SPEEDS...MAY BE APPROXIMATED.




USA.gov is the U.S. government's official web portal to all federal, state and local government web resources and services.